Location: Atherton
(17.2661°S, 145.4859°E)
Time: 04:02:06
(UTC+10:00)

Hubble Space Telescope - Pass Details

Date: 10 February 2026
Orbit: 476 x 479 km, 28.5° (Epoch: 6 March)

Event Time Altitude Azimuth Distance (km) Brightness Sun altitude
Exits shadow 05:27:54 15° 297° (WNW) 1,374 2.2 -10.5°
Maximum altitude 05:29:35 19° 330° (NNW) 1,183 2.1 -10.1°
Drops below altitude 10° 05:32:20 10° 17° (NNE) 1,640 3.2 -9.5°
Sets 05:34:59 0° 35° (NE) 2,514 4.4 -8.9°
